Vorticity
nan nan nan nan nan nan nan nan nan nan nan nan nan nan nan nan nan nan nan nan nan nan nan nan nan nan nan nan nan nan nan nan nan nan nan nan nan nan nan nan nan nan nan nan nan nan nan nan nan nan nan nan nan nan nan nan nan nan nan nan nan nan nan nan nan nan nan nan nan nan nan nan nan nan nan nan nan nan nan nan nan nan nan nan nan nan
nan 9 9 9 8 8 9 9 8 7 6 6 7 7 8 10 10 10 12 13 12 11 10 10 10 11 11 10 7 6 7 6 7 7 7 8 8 8 8 8 8 9 9 9 10 10 10 10 10 10 10 9 9 9 9 9 10 10 10 10 10 10 10 9 10 10 10 10 10 10 10 10 10 10 10 11 11 11 10 10 10 10 11 10 10 nan
nan 9 9 9 8 7 8 9 10 9 8 7 7 7 8 9 9 9 10 11 12 11 10 10 10 12 12 11 8 8 6 6 6 7 7 8 8 8 8 8 9 9 9 10 10 10 10 10 10 9 9 9 9 9 9 9 9 9 9 9 9 9 9 10 10 10 10 10 10 10 11 11 11 11 11 11 11 11 11 11 11 11 11 11 11 nan
nan 8 9 10 10 9 8 8 9 10 10 9 9 10 11 10 9 9 9 9 10 11 12 12 12 12 12 12 10 7 4 5 5 6 7 7 8 8 8 9 9 10 10 10 10 10 10 9 9 9 9 9 9 9 9 9 9 9 9 9 9 9 10 10 11 11 11 11 11 11 12 12 11 11 11 11 11 12 11 11 11 11 11 11 11 nan
nan 9 9 9 10 11 11 10 10 10 11 12 12 12 11 9 9 9 9 10 10 11 13 14 13 12 10 9 6 3 3 4 5 6 7 8 8 8 9 10 10 10 10 10 10 10 9 9 9 9 9 9 9 9 9 9 9 9 9 9 10 10 10 11 12 12 12 12 12 12 12 12 12 12 12 12 12 12 12 12 12 12 11 12 12 nan
nan 9 9 9 9 9 11 12 12 12 12 12 11 9 9 9 9 9 9 11 12 13 13 13 12 11 10 6 3 3 6 7 8 9 10 10 10 10 10 10 10 10 10 10 9 9 9 9 9 9 9 9 9 8 8 8 9 9 9 10 10 11 12 12 12 13 13 13 13 12 12 12 12 12 12 12 12 12 12 12 12 12 12 12 11 nan
nan 9 9 8 8 8 9 10 11 11 10 9 8 8 9 10 10 10 10 11 13 13 12 11 11 12 11 9 7 9 12 14 16 17 16 15 15 14 13 11 10 10 10 9 9 9 9 9 9 9 9 8 8 8 8 9 9 9 10 11 11 12 12 12 12 12 12 12 12 12 12 11 11 11 11 11 11 11 11 11 11 11 11 11 11 nan
nan 8 8 7 7 7 7 9 9 9 7 7 7 8 9 10 10 11 13 13 13 12 11 10 10 10 11 11 12 14 14 16 19 19 19 21 21 19 15 13 11 10 10 10 9 9 9 9 8 8 8 8 8 8 9 9 10 10 11 11 12 12 12 12 12 12 12 11 11 11 11 11 11 11 11 10 10 10 10 10 10 11 11 10 10 nan
nan 7 7 7 7 7 9 10 9 7 7 7 7 7 9 9 10 11 13 13 11 10 8 8 8 9 10 11 13 12 10 10 9 7 9 13 12 10 9 11 12 12 10 10 9 8 8 8 8 8 8 9 9 9 9 10 10 11 11 11 11 11 11 11 11 11 11 11 10 10 10 10 10 10 10 10 9 9 9 10 10 10 10 10 10 nan
nan 6 7 8 9 9 10 10 10 9 9 9 9 9 9 9 10 11 11 9 8 7 7 7 8 9 11 11 10 9 9 10 8 6 6 4 1 2 6 9 11 10 9 9 9 9 9 9 9 9 9 10 10 10 11 11 11 12 11 11 11 10 10 10 10 10 10 10 10 10 9 10 9 9 9 9 9 9 10 10 10 10 10 10 10 nan
nan 9 10 11 12 12 12 11 10 10 10 10 11 11 10 10 10 9 8 7 7 8 8 9 10 10 10 10 9 9 12 14 16 18 19 15 14 15 17 16 14 11 12 13 12 12 11 10 10 11 11 12 12 12 12 12 12 11 10 10 10 10 10 10 10 10 10 9 9 9 9 9 9 9 9 9 10 10 10 10 10 10 10 10 10 nan
nan 12 13 12 12 12 12 11 10 10 10 9 9 9 10 11 10 8 7 8 8 9 10 10 10 9 9 9 10 11 14 14 16 19 23 24 26 27 26 23 20 18 19 19 19 18 14 13 13 14 14 14 13 12 12 12 10 9 9 10 9 9 9 10 10 9 9 9 9 9 9 9 9 9 9 10 10 10 11 11 10 10 10 10 10 nan
nan 11 10 10 10 10 9 8 8 8 8 7 7 8 10 10 10 9 8 7 8 9 10 9 9 10 11 10 10 12 12 13 13 14 15 17 19 19 18 15 14 15 17 18 19 16 13 16 19 19 16 15 13 12 13 12 10 9 9 9 9 9 9 9 9 8 8 8 8 9 9 10 10 10 10 10 10 10 10 10 10 10 10 10 11 nan
nan 9 8 8 9 9 8 7 7 7 8 8 9 10 10 9 9 7 6 7 9 10 9 7 8 10 13 13 13 11 10 11 11 11 10 10 10 9 7 6 7 9 11 12 11 9 10 18 22 20 18 17 16 15 13 11 9 9 9 8 8 8 8 8 8 8 8 9 9 9 9 10 10 10 9 10 10 10 10 10 10 10 10 10 11 nan
nan 9 8 8 8 8 7 7 8 8 8 8 9 10 10 8 8 7 6 7 9 10 9 10 11 12 13 14 13 11 9 9 9 8 8 8 8 6 4 5 7 8 9 8 8 7 13 18 18 16 16 12 10 6 4 6 6 7 7 7 8 8 8 8 8 9 9 9 10 10 10 10 10 10 10 10 10 10 10 11 10 10 10 11 11 nan
nan 9 9 9 8 7 7 8 8 8 9 10 10 10 9 9 9 8 8 10 11 11 11 12 13 14 14 13 11 10 9 9 8 6 5 7 7 6 6 8 8 9 9 8 9 10 15 14 12 11 9 3 0 -1 2 5 6 7 7 7 8 8 8 9 9 9 9 9 10 10 10 10 10 10 10 10 10 10 11 11 10 10 10 11 11 nan
nan 9 8 8 7 7 8 9 9 10 11 11 11 10 9 9 9 9 10 11 11 11 10 10 11 13 12 12 11 10 9 8 7 5 6 7 8 8 10 11 10 11 10 10 10 11 11 11 10 9 4 -3 -2 1 5 6 6 7 7 8 9 9 9 9 9 9 9 10 10 10 10 10 10 10 11 11 10 10 11 11 11 10 11 11 11 nan
nan 7 8 8 9 9 10 11 11 11 11 11 10 10 9 9 9 9 8 9 8 8 8 9 9 9 7 8 8 7 7 8 8 7 7 9 9 9 12 12 12 11 10 10 10 10 10 10 7 1 -8 -8 -2 3 5 7 8 8 9 9 9 9 9 9 9 9 9 9 10 10 10 10 10 10 11 11 10 11 11 11 11 11 11 11 11 nan
nan 7 8 9 10 10 10 10 10 10 10 9 8 7 8 8 8 8 8 10 9 9 9 9 8 8 8 6 5 4 6 7 7 7 8 9 10 12 13 12 11 11 10 11 11 12 11 10 5 -0 -5 0 4 6 7 8 9 9 9 9 9 9 9 9 9 9 10 10 10 10 10 10 11 11 11 11 11 11 11 11 11 11 11 11 11 nan
nan 7 9 10 11 11 11 11 9 8 6 6 6 7 7 9 9 9 11 11 11 12 12 11 9 9 10 7 5 4 5 8 9 10 12 13 13 13 13 12 11 10 9 11 11 12 11 10 10 10 10 9 8 8 8 8 8 8 8 9 9 9 9 9 10 10 10 10 10 10 11 11 11 11 11 11 11 11 11 11 11 11 11 11 11 nan
nan 9 10 10 10 10 9 8 5 3 3 6 9 9 9 10 10 11 11 11 11 12 11 11 9 8 6 5 4 5 8 10 13 14 15 14 12 12 13 12 11 9 9 11 11 11 11 10 11 11 9 5 5 5 6 7 8 8 9 9 9 10 10 10 10 10 10 10 11 11 11 11 11 11 11 12 11 11 11 11 11 10 11 11 11 nan
nan 11 10 9 8 6 5 4 5 6 8 10 9 9 12 11 11 11 11 12 11 11 9 7 6 5 4 6 8 10 12 13 13 13 12 10 9 11 13 11 9 8 11 12 12 11 11 10 9 6 3 1 3 5 7 8 9 9 9 10 10 10 10 10 10 10 10 11 11 11 11 11 11 11 11 11 11 11 10 10 10 10 11 11 11 nan
nan 8 9 10 9 8 8 9 11 13 14 13 11 11 12 12 13 13 13 11 9 8 7 6 6 7 9 10 12 13 14 13 12 11 9 9 10 12 11 9 8 8 10 10 10 10 9 9 8 8 8 7 8 9 9 9 9 9 9 9 10 10 10 10 10 11 11 11 11 11 11 11 11 10 10 10 11 10 10 11 11 11 12 12 12 nan
nan 9 10 10 7 6 6 7 8 10 12 13 15 14 12 10 10 9 7 6 6 7 7 8 9 11 13 12 12 13 14 13 11 11 9 11 11 10 8 8 7 8 9 10 9 9 9 10 10 11 12 12 12 9 10 9 9 9 9 9 10 10 10 11 11 11 11 11 10 10 10 10 10 10 10 11 11 11 11 12 12 12 12 12 12 nan
nan 5 4 0 -3 -6 -7 -5 -4 -2 0 7 10 11 8 6 6 7 7 8 9 9 9 9 11 13 12 12 14 14 14 12 11 10 9 11 10 9 8 9 9 9 10 10 9 8 8 9 10 11 11 13 12 11 11 10 10 9 9 10 10 10 10 10 10 10 10 10 10 10 10 10 10 11 11 11 11 12 12 12 12 12 12 12 13 nan
nan -6 -10 -11 -10 -7 -6 -4 -4 -4 -1 3 3 3 4 8 10 11 10 11 11 10 10 11 12 11 11 12 12 12 11 12 11 10 8 8 9 10 10 10 10 9 9 9 9 8 7 8 9 9 9 12 14 15 12 11 11 10 10 10 10 10 10 9 9 9 9 9 10 10 11 11 11 11 11 12 11 11 11 11 11 11 12 14 18 nan
nan -1 -0 2 6 9 10 10 8 6 7 5 2 2 7 12 12 11 10 11 11 10 10 10 10 11 11 10 10 9 8 10 11 11 9 8 9 10 10 9 9 9 11 11 9 8 7 9 10 10 11 12 15 16 15 14 13 12 12 10 9 9 9 9 9 9 10 10 11 11 11 11 11 11 11 11 11 11 11 11 11 12 15 22 30 nan
nan 16 17 17 16 15 15 15 14 13 12 9 7 12 19 19 15 12 11 10 10 10 9 9 9 10 10 9 9 8 8 10 11 12 12 11 11 10 10 8 8 10 13 13 12 11 13 15 15 15 15 12 13 16 18 16 17 17 16 12 11 10 10 10 10 11 11 11 11 11 11 11 11 11 11 11 11 11 11 10 12 17 25 31 33 nan
nan 23 21 19 17 16 17 19 18 16 13 14 16 21 24 20 14 11 10 9 9 9 9 9 9 9 8 9 9 10 13 14 15 16 14 11 10 9 8 7 8 10 14 14 14 16 18 18 17 16 15 12 12 14 17 18 21 22 21 18 17 16 14 13 12 12 12 12 11 11 11 11 11 11 11 11 11 11 10 10 15 24 33 30 23 nan
nan 20 20 19 19 21 23 22 18 16 15 16 19 23 23 18 12 10 10 10 10 10 9 9 9 9 8 10 12 15 17 17 16 13 10 9 9 8 7 8 9 10 13 13 14 15 16 16 15 13 11 11 12 11 11 14 17 19 20 22 24 22 16 14 14 14 14 13 13 12 12 12 12 12 11 11 11 11 10 12 18 25 27 21 16 nan
nan 14 15 16 18 19 19 17 16 16 17 19 21 22 19 14 11 10 11 10 10 10 10 9 9 9 9 10 11 12 13 12 8 5 5 9 9 8 7 10 10 11 11 10 9 9 12 14 13 11 8 9 10 9 7 9 11 13 14 18 20 18 15 15 16 17 19 17 15 14 13 13 12 12 12 11 11 11 10 12 16 19 17 14 13 nan
nan 11 12 12 13 13 13 13 14 15 16 18 19 18 15 12 11 10 11 11 11 10 10 9 9 9 9 7 6 6 5 3 1 2 6 11 10 10 10 10 9 10 10 8 6 6 8 8 8 8 8 9 11 11 10 10 10 10 10 12 13 12 13 18 20 23 23 20 19 19 17 15 14 14 13 12 12 12 11 12 13 14 10 11 11 nan
nan 11 10 11 12 12 12 12 12 11 12 13 13 14 14 13 12 11 11 11 10 10 10 10 9 10 10 9 8 6 3 2 1 3 9 13 11 10 9 8 8 8 9 10 9 8 6 3 4 6 10 11 11 11 12 12 11 10 12 12 11 11 15 20 22 23 20 21 23 23 22 23 22 19 18 16 16 15 14 15 13 9 3 7 9 nan
nan 11 11 12 12 12 11 11 10 9 10 10 11 12 13 13 12 12 11 11 10 10 10 10 10 9 10 11 10 9 6 5 4 5 11 13 11 8 7 7 8 9 10 11 11 12 9 4 3 5 9 11 11 11 12 12 13 13 13 11 10 11 15 17 18 17 15 17 20 21 24 27 27 26 24 22 20 17 15 14 13 9 3 0 1 nan
nan 12 12 12 11 10 10 9 9 9 10 11 11 12 11 11 11 11 11 11 10 9 9 9 9 9 9 9 8 8 7 5 4 6 10 11 9 8 9 10 9 9 9 9 10 11 9 7 6 5 5 8 11 12 12 13 14 14 12 10 9 9 11 12 12 12 14 14 14 15 18 19 22 23 23 19 16 13 11 11 11 10 8 1 -3 nan
nan 11 12 11 10 9 9 9 10 10 11 11 12 11 10 10 9 10 10 10 10 9 8 8 8 7 6 6 6 6 5 4 4 6 9 10 8 8 8 9 8 8 9 9 9 8 7 8 9 8 7 9 11 13 13 13 12 11 10 11 10 9 10 10 10 10 11 10 10 11 11 12 13 15 15 12 11 11 12 11 12 12 11 8 3 nan
nan 10 11 10 9 9 10 11 11 11 11 11 10 9 9 9 8 8 9 10 10 9 10 10 10 8 4 2 3 3 3 1 2 4 7 8 8 7 6 6 7 8 9 9 8 8 7 8 10 12 13 12 9 6 6 8 9 9 9 10 10 10 10 10 10 9 9 9 9 8 8 9 10 12 12 15 19 23 24 24 23 20 17 17 14 nan
nan 10 10 10 10 10 11 11 10 10 10 9 9 8 9 8 8 9 10 11 11 10 10 11 11 11 10 6 4 2 1 1 3 5 9 9 9 8 6 6 8 10 9 8 8 8 8 8 9 11 13 12 8 4 4 7 7 8 9 10 10 11 11 12 12 11 10 11 10 9 9 10 11 12 13 21 25 27 28 30 28 25 26 28 26 nan
nan 9 9 9 9 10 10 10 10 10 10 9 8 8 9 10 11 12 12 12 12 11 10 9 10 13 16 15 13 10 9 11 13 14 16 14 12 10 8 7 9 10 10 10 10 9 8 8 8 7 7 8 9 10 11 9 8 7 7 12 15 15 13 12 12 12 11 11 11 12 13 14 12 12 12 15 16 16 17 19 21 22 24 27 29 nan
nan 9 9 9 10 10 9 9 9 9 9 9 9 11 12 13 14 15 14 13 13 13 13 13 12 13 14 16 17 16 16 16 16 16 18 15 11 9 9 8 9 10 11 11 11 10 9 7 6 6 6 5 6 7 8 8 6 3 4 10 12 12 10 9 10 11 11 12 12 13 12 11 10 10 11 10 10 11 12 11 13 16 16 15 17 nan
nan 10 10 10 10 10 10 10 9 9 9 10 12 13 13 13 13 13 13 12 13 14 14 15 15 14 14 15 16 17 17 16 15 14 13 12 9 7 8 8 9 10 10 11 10 10 8 7 7 8 9 7 7 8 8 6 5 5 9 9 6 4 7 9 12 13 13 12 13 12 9 9 10 11 11 10 11 12 10 8 7 8 9 9 10 nan
nan 11 11 10 10 10 10 9 9 10 11 12 12 11 11 12 11 10 8 10 11 11 11 12 11 11 12 13 15 17 19 19 18 16 13 14 13 10 8 7 8 8 10 11 10 10 9 8 9 9 9 9 9 10 9 9 10 12 12 8 7 9 17 20 19 16 13 12 11 11 11 12 13 13 12 12 12 12 12 9 6 4 5 8 9 nan
nan 11 10 10 10 9 9 10 12 12 13 12 11 10 11 10 8 7 9 10 9 8 10 10 10 10 10 10 12 15 18 18 17 16 16 16 15 13 11 8 7 7 8 10 11 11 12 11 10 10 9 9 9 8 7 9 11 13 13 10 9 12 16 16 13 11 10 10 10 11 13 14 13 12 12 12 11 12 13 13 14 14 10 8 9 nan
nan 11 10 11 10 10 11 12 11 11 11 10 10 10 10 9 8 9 11 11 9 9 11 12 12 12 11 11 11 12 13 15 16 18 18 15 12 9 10 12 11 10 8 7 8 9 12 14 13 11 11 11 10 9 8 8 9 11 11 11 10 9 3 2 3 5 10 12 12 12 12 12 12 10 10 10 11 11 11 13 17 19 18 14 12 nan
nan 11 10 10 10 10 9 10 10 10 10 10 10 10 10 10 11 12 11 9 9 11 11 11 12 12 11 11 11 11 10 11 13 16 18 17 16 15 15 15 14 14 13 10 8 7 8 10 10 11 11 11 10 9 7 8 9 10 10 11 12 12 7 4 5 8 10 11 11 10 10 9 9 9 9 10 10 10 10 11 12 13 16 15 14 nan
nan 9 10 10 10 9 9 10 11 11 11 10 10 11 11 12 12 12 10 10 11 11 11 11 11 9 7 7 8 9 9 8 9 11 13 17 20 21 19 16 14 13 13 13 11 9 7 6 6 7 9 11 11 11 9 8 9 10 11 12 13 13 12 12 11 11 10 10 10 10 12 10 9 9 9 10 11 12 13 13 13 13 13 13 13 nan
nan 9 10 10 10 10 11 11 11 11 10 10 11 11 11 11 10 10 11 11 11 11 11 11 10 8 7 7 8 7 7 7 8 9 9 11 13 15 16 17 16 14 11 11 11 10 9 7 6 5 6 8 10 12 12 11 10 10 10 11 12 12 12 12 12 12 11 10 9 9 12 12 12 11 10 11 12 13 14 14 14 13 12 12 12 nan
nan 10 10 10 10 10 10 11 11 10 10 10 11 11 11 8 7 8 11 12 12 11 12 11 10 10 10 9 9 8 7 7 8 9 9 10 11 12 14 15 16 16 14 12 13 14 14 13 11 9 7 6 7 8 9 11 11 11 11 11 11 11 11 10 10 11 11 11 10 10 10 10 11 12 13 13 12 11 10 10 11 11 12 12 12 nan
nan 10 10 10 10 10 10 10 10 10 10 10 10 11 10 9 9 13 14 12 12 12 11 10 9 9 10 10 10 9 9 11 11 10 10 11 11 12 12 12 12 13 14 16 19 19 20 22 22 18 11 6 4 5 8 9 10 11 11 11 11 11 11 10 11 11 11 12 13 13 10 10 11 12 13 12 9 7 7 9 10 11 12 13 13 nan
nan 10 10 11 10 10 10 10 10 10 10 10 10 11 11 12 13 14 13 12 11 11 10 10 10 9 9 9 9 9 10 12 11 10 10 11 11 10 10 9 9 11 13 16 17 17 19 24 28 28 22 11 4 3 8 10 11 11 11 11 11 12 11 11 11 11 11 12 14 16 13 12 12 12 11 10 8 7 9 11 11 12 13 14 14 nan
nan nan nan nan nan nan nan nan nan nan nan nan nan nan nan nan nan nan nan nan nan nan nan nan nan nan nan nan nan nan nan nan nan nan nan nan nan nan nan nan nan nan nan nan nan nan nan nan nan nan nan nan nan nan nan nan nan nan nan nan nan nan nan nan nan nan nan nan nan nan nan nan nan nan nan nan nan nan nan nan nan nan nan nan nan nan
CAPE
nan nan nan nan nan nan nan nan nan nan nan nan nan nan nan nan nan nan nan nan nan nan nan nan nan nan nan nan 0 0 11 22 30 30 32 30 27 27 28 32 32 37 42 46 46 50 52 51 51 53 55 61 62 62 68 78 78 87 95 108 108 126 141 153 153 173 183 195 197 197 192 187 178 178 165 157 150 150 146 147 147 150 152 154 154 152
nan nan nan nan nan nan nan nan nan nan nan nan nan nan nan nan nan nan nan nan nan nan nan nan nan nan nan nan 0 0 14 25 28 28 27 22 23 23 26 31 31 35 39 40 40 42 48 51 51 54 57 61 64 64 67 78 78 84 92 102 102 116 135 146 146 152 163 170 166 166 162 157 144 144 145 142 138 138 142 147 147 147 150 155 155 159
nan nan nan nan nan nan nan nan nan nan nan nan nan nan nan nan nan nan nan nan nan nan nan nan nan nan nan nan 3 3 16 25 23 23 20 19 20 20 26 30 30 31 33 34 34 37 42 46 46 53 58 63 64 64 69 74 74 83 87 100 100 111 121 131 131 137 143 141 137 137 134 130 121 121 135 140 139 139 143 145 145 144 154 160 160 169
nan nan nan nan nan nan nan nan nan nan nan nan nan nan nan nan nan nan nan nan nan nan nan nan nan nan nan nan nan nan 16 21 17 17 16 17 20 20 22 24 24 24 27 29 29 33 38 42 42 52 61 64 66 66 72 77 77 81 87 97 97 109 109 114 114 119 113 113 110 110 110 109 108 108 121 127 136 136 135 140 140 132 138 153 153 166
nan nan nan nan nan nan nan nan nan nan nan nan nan nan nan nan nan nan nan nan nan nan nan nan nan nan nan nan nan nan 10 15 14 14 14 17 17 17 17 19 19 21 24 27 27 31 35 41 41 51 60 66 67 67 71 76 76 84 88 94 94 97 100 96 96 92 86 86 87 87 89 89 92 92 103 118 124 124 126 127 127 124 129 138 138 155
nan nan nan nan nan nan nan nan nan nan nan nan nan nan nan nan nan nan nan nan nan nan nan nan nan nan nan nan nan nan 4 10 10 10 12 12 12 12 13 17 17 20 24 27 27 34 38 42 42 49 55 61 67 67 71 77 77 78 79 81 81 78 75 72 72 70 66 65 65 65 67 75 79 79 83 93 107 107 118 124 124 125 131 137 137 155
nan nan nan nan nan nan nan nan nan nan nan nan nan nan nan nan nan nan nan nan nan nan nan nan nan nan nan nan nan nan 1 4 6 6 7 7 9 9 12 16 16 21 26 30 30 36 40 41 41 46 51 58 63 63 64 66 66 63 67 60 60 60 58 56 56 53 54 52 53 53 55 60 62 62 69 74 85 85 102 122 122 134 149 154 154 161
nan nan nan nan nan nan nan nan nan nan nan nan nan nan nan nan nan nan nan nan nan nan nan nan nan nan nan nan nan nan nan nan nan nan nan nan 1 1 6 17 17 25 29 33 33 36 38 40 40 43 45 47 45 45 47 41 41 36 34 33 33 31 30 30 30 32 35 38 39 39 40 45 47 47 56 62 76 76 97 130 130 160 185 196 196 217
nan nan nan nan nan nan nan nan nan nan nan nan nan nan nan nan nan nan nan nan nan nan nan nan nan nan nan nan nan nan nan nan nan nan nan nan nan nan nan 14 14 24 30 31 31 33 34 34 34 37 40 38 38 38 36 29 29 25 22 20 20 20 21 24 24 27 28 30 37 37 41 42 47 47 57 72 91 91 114 136 136 166 191 220 220 246
nan nan nan nan nan nan nan nan nan nan nan nan nan nan nan nan 0 0 nan nan nan nan nan nan nan nan nan nan nan nan nan nan 4 4 12 2 15 15 9 8 8 7 25 29 29 29 27 29 29 31 32 28 28 28 24 18 18 16 15 13 13 14 15 19 19 23 27 31 39 39 43 51 62 62 71 92 108 108 126 137 137 156 192 222 222 253
0 0 0 nan nan nan nan nan nan nan nan nan nan nan nan nan nan nan nan nan nan nan nan nan nan nan nan nan nan nan nan nan nan nan nan nan 3 3 8 6 6 11 20 21 21 20 18 20 20 22 22 20 16 16 12 10 10 10 10 10 10 11 14 17 17 22 28 34 41 41 49 59 72 72 90 105 115 115 117 130 130 148 176 212 212 243
1 0 nan nan nan nan nan nan nan nan nan nan nan nan nan nan nan nan nan nan nan nan nan nan nan nan nan nan nan nan nan nan nan nan nan nan nan nan nan nan nan nan 1 7 7 8 11 12 12 13 11 7 9 9 7 4 4 6 7 9 9 11 14 21 21 28 35 39 46 46 54 65 77 77 91 102 106 106 113 123 123 128 161 193 193 226
0 nan nan nan nan nan nan nan nan nan nan nan nan nan nan nan nan nan nan nan nan nan nan nan nan nan nan nan nan nan nan nan nan nan nan nan nan nan nan nan nan nan nan nan nan nan nan 4 4 5 5 3 3 3 4 3 3 4 6 9 9 13 18 25 25 33 39 41 47 47 56 62 69 69 78 97 105 105 109 124 124 130 150 182 182 206
nan nan 0 0 0 nan 1 nan 0 0 nan nan nan nan nan nan nan nan nan nan nan nan nan nan nan nan nan nan nan nan nan nan nan nan nan nan nan nan nan nan nan nan nan nan nan nan nan nan nan nan nan nan 0 0 0 1 1 5 9 14 14 19 24 30 30 35 41 42 47 47 53 58 66 66 74 90 109 109 112 124 124 130 140 168 168 192
nan 1 4 3 3 2 0 nan nan nan nan nan nan nan 0 nan nan nan nan nan nan nan nan nan nan nan nan nan nan nan nan nan nan nan nan nan nan nan nan nan nan nan nan nan nan nan nan nan nan nan nan nan nan nan nan 1 1 11 13 18 18 23 27 33 33 37 42 44 46 46 51 60 67 67 75 90 106 106 115 116 116 123 138 147 147 167
3 8 8 5 5 2 0 nan nan nan nan nan 0 0 nan nan nan nan nan nan nan nan nan nan nan nan nan nan nan nan nan nan nan nan nan nan nan nan nan nan nan nan nan nan nan nan nan nan nan nan nan nan 0 0 2 5 5 13 17 22 22 25 28 33 33 38 42 44 47 47 53 58 65 65 75 81 96 96 111 114 114 121 127 142 142 147
9 14 6 3 3 1 0 nan nan nan nan 0 1 1 0 nan nan nan nan nan nan nan nan nan nan nan nan nan nan nan nan nan nan nan nan nan nan nan nan nan nan nan nan nan nan nan nan nan nan nan nan nan 1 1 3 9 9 14 18 22 22 25 28 33 33 40 43 46 49 49 53 56 65 65 69 76 87 87 92 105 105 112 119 129 129 137
10 6 2 2 2 0 0 nan nan nan nan 0 1 1 1 0 nan nan nan nan nan nan nan nan nan nan nan nan nan nan nan nan nan nan nan nan nan nan nan nan nan nan nan nan nan nan nan nan nan nan nan 1 4 4 7 11 11 14 18 21 21 24 29 34 34 43 45 46 51 51 56 60 61 61 65 71 78 78 82 90 90 104 111 118 118 133
3 3 3 2 2 2 1 1 1 1 1 1 1 1 1 0 nan nan nan nan nan nan nan nan nan nan nan nan nan nan nan nan nan nan nan nan nan nan nan nan nan nan nan nan nan nan nan nan nan nan nan 2 5 5 8 11 11 15 18 21 21 24 29 35 35 42 46 47 51 51 56 56 60 60 62 64 72 72 77 91 91 101 119 123 123 135
2 4 3 3 3 3 2 3 3 3 3 4 2 2 nan nan nan nan nan nan nan nan nan nan nan nan nan nan nan nan nan nan nan nan nan nan nan nan nan nan nan nan nan nan nan nan nan nan nan nan nan 1 5 5 9 11 11 16 19 22 22 26 31 35 35 42 47 50 51 51 51 52 56 56 58 62 67 67 73 85 85 100 115 127 127 128
5 4 2 2 2 4 4 2 3 3 7 6 0 0 nan nan nan nan nan nan nan nan nan nan nan nan nan nan nan nan nan nan nan nan nan nan nan nan nan nan nan nan nan nan nan nan nan nan nan nan nan 1 6 6 9 13 13 16 19 22 22 24 30 35 35 39 44 47 49 49 50 51 51 51 55 60 65 65 71 84 84 94 103 110 110 114
8 8 4 5 5 8 9 2 6 6 6 0 nan nan nan nan nan nan nan nan nan nan nan nan nan nan nan nan nan nan nan nan nan nan nan nan nan nan nan nan nan nan nan nan nan nan nan nan nan nan nan 3 7 7 10 13 13 16 19 21 21 24 28 34 34 38 39 43 45 45 47 49 50 50 54 59 62 62 66 72 72 79 85 93 93 99
11 13 10 8 8 6 3 nan nan nan nan nan nan nan nan nan nan nan nan nan nan nan nan nan nan nan nan nan nan nan nan nan nan nan nan nan nan nan nan nan nan nan nan nan nan nan nan nan nan nan nan 6 8 8 11 13 13 15 17 20 20 22 25 29 29 31 36 41 42 42 45 46 49 49 51 56 59 59 62 68 68 73 78 79 79 89
10 9 5 nan nan nan nan nan nan nan nan nan nan nan nan nan nan nan nan nan nan nan nan nan nan nan nan nan nan nan nan nan nan nan nan nan nan nan nan nan nan nan nan nan nan nan nan nan nan nan nan 3 8 8 11 13 13 15 17 18 18 20 23 24 24 28 32 36 41 41 41 43 47 47 49 52 53 53 56 63 63 67 73 77 77 80
nan nan nan nan nan nan nan 0 1 1 2 3 2 2 nan nan 0 0 nan nan nan nan nan nan nan nan nan nan nan nan nan nan nan nan nan nan nan nan nan nan nan nan nan nan nan nan nan nan nan nan nan nan 5 5 9 12 12 13 15 15 15 17 19 21 21 23 27 30 33 33 36 38 42 42 42 47 50 50 51 58 58 63 69 70 70 74
nan nan 3 13 13 39 56 74 88 88 65 26 7 7 0 0 nan nan nan nan nan nan nan nan nan nan nan nan nan nan nan nan nan nan nan nan nan nan nan nan nan nan nan nan nan nan nan nan nan nan nan nan 2 2 7 9 9 10 13 13 13 14 15 16 16 19 21 24 27 27 30 34 37 37 40 46 50 50 52 57 57 63 68 68 68 68
31 35 46 56 56 65 69 77 77 77 74 54 13 13 2 nan nan nan nan nan nan 0 nan nan nan nan nan nan nan nan nan nan nan nan nan nan nan nan nan nan nan nan nan nan nan nan nan nan nan nan nan nan nan nan 4 7 7 9 10 10 10 11 11 12 12 14 16 18 21 21 26 30 35 35 38 43 50 50 54 57 57 63 66 64 64 67
26 33 40 48 48 55 61 60 56 56 47 40 41 41 15 0 nan nan 0 nan nan 0 nan nan nan nan nan nan nan nan nan nan nan nan nan nan nan nan nan nan nan nan nan nan nan nan 3 0 0 nan nan nan nan nan nan 4 4 7 8 7 7 8 8 9 9 10 13 16 18 18 22 27 33 33 38 45 52 52 56 59 59 64 66 53 53 21
17 30 40 43 43 42 39 32 22 22 19 19 26 26 14 nan nan nan nan nan nan nan nan 0 0 nan nan nan nan nan nan nan nan nan nan nan nan nan nan nan nan nan nan nan nan nan nan nan nan nan nan nan nan nan nan 0 0 3 4 6 6 6 5 6 6 9 11 13 18 18 21 25 31 31 38 45 50 50 52 59 59 63 54 36 36 12
11 21 16 11 11 7 0 nan nan nan 4 10 18 18 13 0 nan nan nan nan nan nan nan nan nan nan nan nan nan nan nan nan nan nan nan nan nan nan nan nan nan nan nan nan nan nan nan nan nan nan nan nan nan nan nan nan nan nan nan 4 4 3 3 4 4 7 10 13 16 16 21 26 30 30 36 41 47 47 52 54 54 46 23 12 12 9
nan nan nan nan nan nan nan nan nan nan 1 9 14 14 8 nan nan nan nan nan nan nan nan nan nan nan nan nan nan nan nan nan nan nan nan nan nan nan nan nan nan nan nan nan nan nan nan nan nan nan nan nan nan nan nan nan nan nan nan nan nan nan 1 3 3 6 10 13 16 16 20 23 26 26 30 35 42 42 47 51 51 39 12 6 6 5
nan nan nan nan nan nan nan nan nan nan nan nan nan nan 3 2 0 0 nan nan nan nan nan nan nan nan nan nan nan nan nan nan nan nan nan nan nan nan nan nan nan nan nan nan nan nan nan nan nan nan nan nan nan nan nan nan nan nan nan nan nan nan nan 1 1 2 1 7 11 11 13 14 18 18 20 23 29 29 31 38 38 38 14 4 4 6
nan nan nan nan nan nan nan nan nan nan nan nan nan nan nan nan 3 3 0 nan nan nan nan nan nan nan nan nan nan nan nan nan 0 0 4 nan nan nan nan nan nan nan nan nan nan nan nan nan nan nan nan nan nan nan nan nan nan nan nan nan nan nan nan nan nan nan nan nan 1 1 7 10 13 13 16 19 22 22 28 33 33 35 33 5 5 6
nan nan nan nan nan nan nan nan nan nan nan nan 0 0 0 nan nan nan 0 nan nan nan nan nan nan nan nan nan nan nan nan nan 0 0 2 nan nan nan nan nan nan nan nan nan nan nan nan nan nan nan nan nan nan nan nan nan nan nan nan nan nan nan nan nan nan nan nan nan nan nan nan nan 4 4 7 12 15 15 22 30 30 35 45 26 26 14
nan nan nan nan nan nan nan nan nan nan nan nan nan nan 0 nan nan nan nan nan nan nan nan nan nan nan nan nan nan nan nan nan nan nan 4 nan nan nan nan nan nan nan nan nan nan nan nan nan nan nan nan nan nan nan nan nan nan nan nan nan nan nan nan nan nan nan nan nan nan nan nan nan nan nan nan 4 12 12 21 30 30 38 47 56 56 45
nan nan nan nan nan nan nan nan 0 0 nan nan nan nan nan nan nan nan nan nan nan 0 1 0 0 nan nan nan nan nan nan nan nan nan 5 nan nan nan nan nan nan nan nan nan nan nan nan nan nan 0 1 nan nan nan nan nan nan nan nan nan nan nan nan nan nan nan nan nan nan nan nan nan nan nan nan 9 19 19 27 33 33 39 45 54 54 58
nan nan nan nan nan nan nan nan nan nan nan nan nan nan nan nan nan nan nan nan nan nan nan 1 1 0 3 nan nan nan nan nan nan nan nan nan nan nan nan nan nan nan nan nan nan nan nan nan nan nan nan nan nan nan nan nan nan nan nan nan nan nan nan nan nan nan nan nan nan nan nan nan nan nan nan 11 14 14 24 33 33 30 37 42 42 50
nan nan nan nan nan nan nan nan nan nan nan nan nan nan nan nan nan nan nan nan nan nan nan nan nan nan 0 5 nan nan nan nan nan nan nan nan nan nan nan nan nan nan nan nan nan nan nan nan nan nan nan nan nan nan nan nan nan nan nan nan nan nan nan nan nan nan nan nan nan nan 0 nan nan nan nan nan nan nan nan nan nan 5 20 23 23 37
nan nan nan nan nan 0 nan nan nan nan nan nan nan nan nan nan nan nan nan nan nan nan nan nan nan nan nan nan 0 0 1 nan nan nan nan nan nan nan nan nan nan nan nan nan nan nan nan nan nan nan nan nan nan nan nan nan nan nan nan nan nan nan nan nan nan nan nan nan nan nan nan nan nan nan nan nan nan nan nan nan nan nan nan nan nan 3
nan nan 0 0 0 0 nan nan nan nan nan nan 0 0 nan nan nan nan nan nan nan nan nan nan nan nan nan nan nan nan nan nan nan nan nan nan nan nan nan nan nan nan nan nan nan nan nan nan nan nan nan nan nan nan nan nan nan nan 0 nan nan nan nan nan nan nan nan nan nan nan nan nan nan nan nan nan nan nan nan nan nan nan nan nan nan nan
2 0 nan 0 0 0 0 0 0 0 0 nan nan nan nan nan nan nan nan nan nan nan nan nan nan nan nan nan nan nan nan nan nan nan nan nan nan nan nan nan nan nan nan nan nan nan nan nan nan nan nan nan nan nan nan nan nan 0 3 nan nan nan nan nan nan nan nan nan nan nan nan nan nan nan nan nan nan nan nan nan nan nan nan nan nan nan
4 1 nan nan nan nan nan nan 0 0 nan nan nan nan nan nan nan nan nan nan nan nan nan nan nan nan nan nan nan nan nan nan nan nan nan nan nan nan nan nan nan nan nan nan nan nan nan nan nan nan nan nan nan nan nan nan nan nan nan nan nan nan nan nan nan nan nan nan nan nan nan nan nan nan nan nan nan nan nan nan nan nan nan nan nan nan
1 0 nan nan nan 0 0 1 1 1 0 nan nan nan nan nan nan nan nan nan nan nan nan nan nan nan nan nan nan nan nan nan nan nan nan nan nan nan nan nan nan nan nan nan nan nan nan nan nan nan nan nan nan nan nan nan nan nan nan nan nan nan nan nan nan nan nan nan nan nan nan nan nan nan nan nan nan nan nan nan nan 2 3 nan nan nan
nan nan 0 0 0 0 1 1 1 1 0 nan nan nan nan nan nan nan nan nan nan nan nan nan nan nan nan nan nan nan nan nan nan nan nan nan nan nan nan nan nan nan nan nan nan nan nan nan nan nan nan nan nan nan nan nan nan nan nan nan nan nan nan nan nan nan nan nan nan nan nan nan nan nan nan nan nan nan nan nan nan nan nan nan nan nan
nan nan 0 1 1 1 1 1 0 0 0 nan nan nan nan nan nan nan nan nan nan nan nan nan nan nan nan nan nan nan nan nan nan nan nan nan 0 0 nan nan nan nan nan nan nan nan nan nan nan nan nan nan nan nan nan nan nan nan nan nan nan nan nan nan nan nan nan nan nan nan nan nan nan nan nan nan nan nan nan nan nan nan nan nan nan nan
nan nan 1 1 1 0 0 0 0 0 nan nan nan nan nan nan nan nan nan nan nan nan nan nan nan nan nan nan nan nan nan nan nan nan nan nan nan nan nan nan nan nan nan nan nan nan nan nan nan nan nan nan nan nan nan nan nan nan nan nan nan nan nan nan nan nan nan nan nan nan nan nan nan nan nan nan nan nan nan nan nan nan nan nan nan nan
nan nan nan nan nan nan nan nan nan nan nan nan nan nan nan nan nan nan nan nan nan nan nan nan nan nan nan nan nan nan nan nan nan nan nan nan nan nan nan nan nan nan nan nan nan nan nan nan nan nan nan nan nan nan nan nan nan nan nan nan nan nan nan nan nan nan nan nan nan nan nan nan nan nan nan nan nan nan nan nan nan nan nan nan nan nan
0 0 nan nan nan nan nan nan nan nan nan nan nan nan nan nan nan nan nan nan nan nan nan nan nan nan nan nan nan nan nan nan nan nan nan nan nan nan nan nan nan nan nan nan nan nan nan nan nan nan nan nan nan nan nan nan nan nan nan nan nan nan nan nan nan nan nan nan nan nan nan nan nan nan nan nan nan nan nan nan nan nan nan nan nan nan
0 nan nan nan nan nan nan nan nan nan nan nan nan nan nan nan 6 6 nan nan nan nan nan nan nan nan nan nan nan nan nan nan nan nan nan nan nan nan nan nan nan nan nan nan nan nan nan nan nan nan nan nan nan nan nan nan nan nan nan nan nan nan nan nan nan nan nan nan nan nan nan nan nan nan nan nan nan nan nan nan nan nan nan nan nan nan
nan nan nan nan nan nan nan nan nan nan nan nan nan nan nan nan nan nan nan nan nan nan nan nan nan nan nan nan nan nan nan nan nan nan nan nan nan nan nan nan nan nan nan nan nan nan nan nan nan nan nan nan nan nan nan nan nan nan nan nan nan nan nan nan nan nan nan nan nan nan nan nan nan nan nan nan nan nan nan nan nan nan nan nan nan nan
nan nan nan nan nan nan nan nan nan nan nan nan nan nan nan nan nan nan nan nan nan nan nan nan nan nan nan nan nan nan nan nan nan nan nan nan nan nan nan nan nan nan nan nan nan nan nan nan nan nan nan 7 nan nan nan nan nan nan nan nan nan nan nan nan nan nan nan nan nan nan nan nan nan nan nan nan nan nan nan nan nan nan nan nan nan nan